Location: USNO
(38.9242°N, 77.0663°W)
Time: 06:01:27
(UTC-05:00)

Envisat - Pass Details

Date: 14 October 2017
Orbit: 764 x 766 km, 98.2° (Epoch: 18 December)

Event Time Altitude Azimuth Distance (km) Brightness Sun altitude
Exits shadow 20:20:02 32° 40° (NE) 1,302 3.9 -22.0°
Drops below altitude 10° 20:23:27 10° 5° (N) 2,312 5.5 -22.7°
Sets 20:25:55 0° 357° (N) 3,242 6.4 -23.1°
